sat.trackr.live / text

‹ back to catalog

ONEWEB-0327

NORAD 49196 · 2021-083L

PAYLOAD ACTIVE UNKNOWN

§ Identity

Operator
Country
UK
Launch date
2021-09-14
Launch site
TYMSC
Launch vehicle
Mass (kg)
RCS (m²)

Purposes: comms

External: N2YO · Heavens-Above · Gunter

§ Orbital elements

Epoch: 2026-09-19T22:09:40.805280Z

Period
109.20 min
Inclination
87.9156°
Eccentricity
0.0002345
Mean motion
13.18686180 rev/d
Perigee alt
1,188.0 km
Apogee alt
1,191.5 km
Semi-major
7,567.9 km
B*
-1.1544e-4
RAAN
316.6324°
Arg perigee
99.4852°
Mean anomaly
260.6545°
Rev number
24,250

§ Raw data

ONEWEB-03271 49196U 21083L   26262.92338895 -.00000033  00000+0 -11544-3 0  99932 49196  87.9156 316.6324 0002345  99.4852 260.6545 13.18686180242506

JSON: /api/v1/satellites/49196 · /tle

For live sub-satellite position, see the globe view (requires WebGL).

§ Visibility from observer

Set your observer location to see the next 7 days of passes ≥ 10°. The values pass through the URL so the page stays shareable.

No JS? Fill the form by hand. The geolocation button needs JavaScript.